Weather History for Parkersburg, WV

Change the Weather History Date:

Tuesday, April 8, 2014

  Actual Average Record
Temperature  
Mean Temperature 54 °F 52 °F  
Max Temperature 63 °F 64 °F 85 °F (1991)
Min Temperature 45 °F 40 °F 22 °F (1972)
Degree Days  
Heating Degree Days 11 14  
Month to date heating degree days 96 119  
Since 1 July heating degree days 4444 4580  
Cooling Degree Days 0 0  
Month to date cooling degree days 0 0  
Year to date cooling degree days 0 3  
Growing Degree Days 4 (Base 50)    
Moisture  
Dew Point 37 °F    
Average Humidity 55    
Maximum Humidity 83    
Minimum Humidity 27    
Precipitation  
Precipitation T in 0.11 in 0.16 in (2000)
Month to date precipitation 1.11 0.88  
Year to date precipitation 6.52 10.26  
Sea Level Pressure  
Sea Level Pressure 29.67 in    
Wind  
Wind Speed 11 mph (West)    
Max Wind Speed 25 mph    
Max Gust Speed 41 mph    
Visibility 10 miles    
Events Rain    
T = Trace of Precipitation, MM = Missing Value Source: NWS Daily Summary

Daily Weather History Graph

Daily Weather History Graph

Search for Another Location

Airport:

Trip Planner

Search our weather history database for the weather conditions in past years. The results will help you decide how hot, cold, wet, or windy it might be!

Date:

Astronomy

Apr. 08, 2014 Rise Set
Actual Time 6:59 AM EDT 7:56 PM EDT
Civil Twilight 6:31 AM EDT 8:23 PM EDT
Nautical Twilight 5:59 AM EDT 8:56 PM EDT
Astronomical Twilight 5:25 AM EDT 9:30 PM EDT
Moon 1:50 PM EDT (4/8) 3:09 AM EDT (4/8)
Length of Visible Light 13h 52m
Length of Day
12h 57m
Waxing Gibbous, 62% of the Moon is Illuminated
Apr 8
Waxing Gibbous
Apr 15
Full
Apr 22
Last Quarter
Apr 29
New
May 6
First Quarter

Hourly Weather History & Observations

Time (EDT) Temp. Windchill Dew Point Humidity Pressure Visibility Wind Dir Wind Speed Gust Speed Precip Events Conditions
12:53 AM 55.0 °F - 50.0 °F 83% 29.48 in 10.0 mi SW 11.5 mph 17.3 mph 0.01 in   Mostly Cloudy
1:53 AM 55.0 °F - 45.0 °F 69% 29.48 in 10.0 mi SW 13.8 mph 24.2 mph N/A   Scattered Clouds
2:53 AM 53.1 °F - 42.1 °F 66% 29.50 in 10.0 mi West 19.6 mph 33.4 mph N/A   Overcast
3:53 AM 50.0 °F - 39.9 °F 68% 29.54 in 10.0 mi WSW 19.6 mph 33.4 mph N/A   Overcast
4:22 AM 48.9 °F - 39.9 °F 71% 29.55 in 10.0 mi WSW 25.3 mph 38.0 mph N/A   Overcast
4:53 AM 48.0 °F - 41.0 °F 77% 29.57 in 10.0 mi WSW 16.1 mph 27.6 mph 0.00 in Rain Light Rain
5:53 AM 46.9 °F - 39.0 °F 74% 29.61 in 10.0 mi WSW 10.4 mph 29.9 mph 0.00 in   Overcast
6:38 AM 46.0 °F 39.3 °F 37.9 °F 73% 29.65 in 10.0 mi WNW 16.1 mph 25.3 mph N/A   Overcast
6:53 AM 46.0 °F 41.0 °F 37.9 °F 73% 29.66 in 10.0 mi West 10.4 mph 20.7 mph N/A   Overcast
7:13 AM 46.0 °F 40.6 °F 39.0 °F 76% 29.68 in 10.0 mi West 11.5 mph 20.7 mph N/A   Overcast
7:53 AM 45.0 °F 38.5 °F 39.9 °F 82% 29.70 in 10.0 mi West 13.8 mph - N/A   Overcast
8:53 AM 46.0 °F 41.0 °F 39.9 °F 79% 29.72 in 10.0 mi WSW 10.4 mph - N/A   Overcast
9:53 AM 46.9 °F - 39.9 °F 77% 29.73 in 10.0 mi West 8.1 mph - N/A   Mostly Cloudy
10:53 AM 50.0 °F - 39.0 °F 66% 29.73 in 10.0 mi WSW 10.4 mph 21.9 mph N/A   Scattered Clouds
11:53 AM 52.0 °F - 37.9 °F 59% 29.74 in 10.0 mi WSW 12.7 mph 19.6 mph N/A   Mostly Cloudy
12:53 PM 55.0 °F - 37.9 °F 53% 29.73 in 10.0 mi West 13.8 mph - N/A   Overcast
1:53 PM 57.0 °F - 34.0 °F 42% 29.72 in 10.0 mi West 11.5 mph - N/A   Scattered Clouds
2:53 PM 61.0 °F - 33.1 °F 35% 29.70 in 10.0 mi WNW 11.5 mph 23.0 mph N/A   Scattered Clouds
3:53 PM 62.1 °F - 30.9 °F 31% 29.68 in 10.0 mi NW 19.6 mph 26.5 mph N/A   Partly Cloudy
4:53 PM 61.0 °F - 30.9 °F 32% 29.68 in 10.0 mi WNW 10.4 mph 19.6 mph N/A   Partly Cloudy
5:53 PM 62.1 °F - 28.0 °F 28% 29.69 in 10.0 mi WNW 16.1 mph 23.0 mph N/A   Partly Cloudy
6:53 PM 60.1 °F - 27.0 °F 28% 29.71 in 10.0 mi WNW 9.2 mph 19.6 mph N/A   Clear
7:53 PM 57.0 °F - 28.0 °F 33% 29.73 in 10.0 mi WNW 6.9 mph - N/A   Clear
8:53 PM 54.0 °F - 30.0 °F 40% 29.75 in 10.0 mi West 4.6 mph - N/A   Clear
9:53 PM 52.0 °F - 32.0 °F 47% 29.78 in 10.0 mi WNW 4.6 mph - N/A   Mostly Cloudy
10:53 PM 53.1 °F - 35.1 °F 50% 29.78 in 10.0 mi WNW 5.8 mph - 0.00 in Rain Light Rain
11:53 PM 53.1 °F - 34.0 °F 48% 29.78 in 10.0 mi Calm Calm - 0.00 in   Overcast